DateTimeUTC,F1_A11,F1_S11,BsB_S11,BsG_S11,BsR_S11,BbsB_S11,BbsG_S11,BbsR_S11,BaB_A11,BaG_A11,BaR_A11,Tu_S11,T_S11,Uu_S11,U_S11,P_S11,T1_A11
2021-06-25T09:00:00Z,00000200,20000000,,,,,,,0000.07,0000.02,0000.54,18.3,24.9,11.7,07.8,0660.8,31.1
2021-06-25T09:01:00Z,00000200,20000000,,,,,,,-000.17,-000.29,-000.44,18.3,24.9,11.7,07.8,0660.8,31.1
2021-06-25T09:02:00Z,00000200,20000000,,,,,,,0000.29,0000.47,-000.14,18.3,24.9,11.7,07.8,0660.8,31.1
2021-06-25T09:03:00Z,00000200,60000000,,,,,,,-000.29,-000.00,0000.07,18.3,24.9,11.7,07.8,0660.8,31.1
2021-06-25T09:04:00Z,00000200,40000000,0000.10,0000.10,0000.21,0000.09,0000.28,-000.23,-000.14,-000.18,0000.09,18.4,24.8,11.5,07.8,0661.7,31.1
2021-06-25T09:05:00Z,00000200,00000000,0001.10,0000.20,0000.19,0000.16,0000.19,-000.00,0000.18,-000.28,0000.09,18.4,24.7,11.5,07.8,0661.8,31.1
2021-06-25T09:06:00Z,00000200,00000000,0000.42,0000.26,-000.06,-000.16,0000.10,0000.15,-000.13,0000.18,0000.07,18.4,24.7,11.5,07.8,0661.7,31.1
2021-06-25T09:07:00Z,00000200,00000000,0000.06,0000.17,0000.11,0000.07,-000.19,-000.04,-000.15,-000.12,-000.09,18.4,24.7,11.3,07.7,0661.7,31.1
2021-06-25T09:08:00Z,00000200,00000000,0000.46,0000.42,0000.22,0000.55,0000.20,0000.20,0000.02,-000.12,-000.40,18.4,24.7,11.3,07.7,0661.7,31.1
2021-06-25T09:09:00Z,00000200,00000000,0000.93,0000.17,0000.02,-000.16,0000.11,0000.17,0000.28,0000.39,0000.30,18.4,24.7,11.5,07.8,0661.8,31.1
2021-06-25T09:10:00Z,00000200,00000000,0000.26,0000.25,-000.13,0000.24,-000.02,0000.00,0000.07,-000.19,0000.11,18.4,24.7,11.4,07.8,0661.8,31.1
2021-06-25T09:11:00Z,00000200,00000000,-000.28,0000.24,-000.08,0000.14,0000.35,-000.01,-000.16,-000.03,0000.05,18.4,24.7,11.2,07.6,0661.8,31.1
2021-06-25T09:12:00Z,00000200,00000000,0000.49,0000.34,0000.02,0000.16,0000.25,-000.10,0000.08,-000.09,-000.12,18.4,24.7,11.2,07.6,0661.8,31.1
2021-06-25T09:13:00Z,00000200,00000000,0000.44,0000.25,0000.19,0000.35,0000.18,-000.09,-000.12,-000.03,0000.08,18.4,24.7,11.1,07.5,0661.7,31.1
2021-06-25T09:14:00Z,00000200,00000000,0000.21,0000.58,0000.26,0000.18,0000.09,-000.15,-000.12,-000.15,-000.35,18.4,24.7,10.9,07.4,0661.8,31.1
2021-06-25T09:15:00Z,00000200,00000000,0000.87,0000.31,0000.04,-000.04,0000.08,-000.18,-000.08,0000.27,0000.42,18.4,24.7,11.1,07.6,0661.7,31.1
2021-06-25T09:16:00Z,00000200,00000000,0000.73,0000.19,0000.05,-000.12,0000.03,0000.19,0000.26,-000.17,-000.07,18.4,24.7,10.8,07.4,0661.7,31.1
2021-06-25T09:17:00Z,00000200,00000000,0000.69,0000.28,0000.14,0000.18,0000.03,-000.08,-000.11,0000.18,-000.23,18.4,24.7,10.9,07.4,0661.7,31.1
2021-06-25T09:18:00Z,00000200,00000000,-000.49,0000.33,0000.05,-000.17,0000.10,0000.17,-000.08,0000.26,0000.02,18.4,24.7,10.9,07.4,0661.7,31.1
2021-06-25T09:19:00Z,00000200,00000000,0000.37,0000.65,0000.12,0000.08,0000.22,0000.34,-000.17,-000.52,0000.04,18.4,24.7,10.7,07.3,0661.7,31.2
2021-06-25T09:20:00Z,00000200,00000000,0000.45,0000.38,0000.23,-000.39,0000.28,0000.24,0000.37,0000.22,0000.09,18.4,24.7,10.8,07.4,0661.7,31.1
2021-06-25T09:21:00Z,00000200,00000000,0000.49,0000.17,0000.36,0000.01,-000.09,0000.02,-000.03,0000.12,0000.31,18.4,24.7,10.8,07.4,0661.7,31.1
2021-06-25T09:22:00Z,00000200,00000000,0000.47,0000.28,0000.10,-000.08,-000.14,-000.02,-000.28,-000.23,-000.33,18.4,24.7,10.8,07.4,0661.7,31.1
2021-06-25T09:23:00Z,00000200,00000000,0000.29,-000.11,0000.32,0000.30,-000.03,0000.19,0000.33,0000.16,-000.02,18.4,24.7,10.7,07.3,0661.7,31.1
2021-06-25T09:24:00Z,00000200,00000000,0000.46,0000.32,-000.00,0000.34,-000.11,0000.03,0000.01,-000.01,0000.42,18.4,24.7,10.7,07.3,0661.7,31.1
2021-06-25T09:25:00Z,00000200,00000000,0000.43,0000.50,-000.02,0000.04,0000.01,-000.18,0000.27,0000.07,-000.34,18.4,24.7,10.7,07.3,0661.7,31.1
2021-06-25T09:26:00Z,00000200,00000000,0000.56,0000.25,0000.20,0000.37,0000.02,0000.36,-000.22,0000.21,0000.24,18.4,24.7,10.7,07.3,0661.7,31.1
2021-06-25T09:27:00Z,00000200,00000000,0000.32,0000.23,0000.00,0000.14,0000.01,-000.14,-000.33,-000.38,-000.41,18.4,24.7,10.9,07.4,0661.8,31.2
2021-06-25T09:28:00Z,00000200,00000000,0000.25,0000.35,0000.04,0000.21,0000.16,0000.05,0000.24,0000.50,0000.30,18.4,24.7,10.7,07.3,0661.7,31.1
2021-06-25T09:29:00Z,00000200,00000000,-000.16,0000.29,0000.15,0000.46,0000.04,0000.18,-000.08,-000.01,0000.05,18.4,24.7,10.8,07.4,0661.7,31.1
2021-06-25T09:30:00Z,00000200,00000000,0000.26,0000.13,0000.27,-000.07,0000.25,0000.10,0000.29,-000.28,-000.02,18.4,24.7,10.8,07.3,0661.8,31.1
2021-06-25T09:31:00Z,00000200,00000000,0000.00,0000.26,-000.03,-000.34,-000.10,0000.29,0000.04,0000.19,0000.30,18.4,24.7,10.8,07.4,0661.8,31.1
2021-06-25T09:32:00Z,00000200,00000000,0000.21,0000.31,-000.08,-000.01,0000.22,-000.07,0000.26,0000.17,-000.14,18.4,24.7,10.8,07.4,0661.8,31.1
2021-06-25T09:33:00Z,00000200,00000000,0000.13,0000.42,0000.28,-000.04,0000.23,0000.00,-000.18,-000.11,-000.24,18.4,24.7,10.8,07.4,0661.8,31.1
2021-06-25T09:34:00Z,00000200,00000000,0000.57,0000.41,0000.18,-000.09,0000.07,0000.13,0000.03,0000.24,0000.52,18.4,24.7,10.7,07.3,0661.8,31.1
2021-06-25T09:35:00Z,00000200,00000000,0000.14,0000.43,0000.31,0000.11,-000.07,0000.04,0000.26,-000.23,-000.27,18.4,24.7,10.9,07.4,0661.8,31.1
2021-06-25T09:36:00Z,00000200,00000000,-000.23,0000.43,-000.06,0000.21,0000.06,0000.10,-000.05,0000.27,0000.13,18.4,24.7,10.9,07.5,0661.8,31.1
2021-06-25T09:37:00Z,00000200,00000000,0000.49,0000.47,0000.13,-000.01,0000.03,-000.15,0000.03,0000.11,-000.12,18.4,24.7,10.9,07.5,0661.8,31.1
2021-06-25T09:38:00Z,00000200,00000000,0000.22,0000.04,0000.32,-000.10,0000.09,0000.00,0000.08,-000.27,-000.25,18.4,24.7,11.0,07.5,0661.8,31.1
2021-06-25T09:39:00Z,00000200,00000000,-000.23,0000.23,0000.09,-000.34,0000.04,0000.17,-000.03,0000.16,0000.61,18.4,24.7,11.0,07.5,0661.8,31.1
2021-06-25T09:40:00Z,00000200,00000000,0000.89,0000.39,0000.12,-000.21,0000.19,0000.20,0000.05,0000.16,0000.03,18.4,24.7,10.9,07.4,0661.8,31.2
2021-06-25T09:41:00Z,00000200,00000000,-000.27,0000.32,-000.01,0000.35,0000.18,-000.12,0000.11,-000.32,-000.49,18.4,24.7,10.9,07.5,0661.8,31.1
2021-06-25T09:42:00Z,00000200,00000000,0000.52,0000.54,0000.23,0000.62,0000.19,-000.22,0000.04,0000.52,0000.44,18.4,24.6,11.0,07.5,0661.8,31.1
2021-06-25T09:43:00Z,00000200,00000000,0000.50,0000.00,0000.33,-000.06,0000.08,0000.15,0000.06,-000.17,-000.24,18.4,24.7,10.9,07.4,0661.8,31.1
2021-06-25T09:44:00Z,00000200,00000000,0000.07,0000.13,0000.04,0000.22,0000.18,0000.12,0000.10,0000.14,0000.37,18.4,24.7,10.8,07.4,0661.8,31.1
2021-06-25T09:45:00Z,00000200,00000000,0000.55,0000.18,0000.13,0000.53,-000.30,-000.01,-000.20,-000.12,-000.14,18.4,24.7,10.8,07.4,0661.8,31.1
2021-06-25T09:46:00Z,00000200,00000000,-000.02,0000.11,0000.26,-000.40,-000.03,0000.47,-000.10,0000.21,0000.10,18.4,24.6,10.8,07.4,0661.8,31.1
2021-06-25T09:47:00Z,00000200,00000000,0000.41,0000.24,0000.18,-000.33,0000.21,0000.07,-000.11,-000.19,-000.35,18.4,24.7,10.8,07.4,0661.7,31.1
2021-06-25T09:48:00Z,00000200,00000000,0000.10,0000.23,0000.09,0000.29,0000.12,0000.25,0000.19,0000.05,0000.37,18.4,24.7,10.7,07.3,0661.8,31.1
2021-06-25T09:49:00Z,00000200,00000000,0000.26,0000.15,0000.08,-000.39,0000.26,0000.36,0000.24,0000.23,0000.06,18.4,24.7,10.7,07.3,0661.8,31.1
2021-06-25T09:50:00Z,00000200,00000000,0000.53,0000.12,0000.22,-000.30,0000.30,-000.11,-000.00,-000.05,0000.07,18.4,24.7,10.8,07.3,0661.8,31.1
2021-06-25T09:51:00Z,00000200,00000000,0001.08,0000.28,-000.08,-000.15,0000.36,0000.19,-000.02,-000.14,-000.36,18.4,24.6,10.6,07.3,0661.7,31.1
2021-06-25T09:52:00Z,00000200,00000000,0001.03,0000.30,-000.02,0000.21,0000.06,0000.14,0000.03,-000.11,-000.07,18.4,24.6,10.6,07.2,0661.7,31.1
2021-06-25T09:53:00Z,00000200,00000000,0000.96,0000.52,0000.29,-000.12,0000.07,0000.23,-000.22,0000.29,0000.46,18.4,24.6,10.6,07.2,0661.7,31.1
2021-06-25T09:54:00Z,00000200,00000000,0000.19,0000.57,0000.10,-000.12,0000.23,-000.08,0000.30,-000.03,-000.21,18.4,24.6,10.7,07.3,0661.7,31.1
2021-06-25T09:55:00Z,00000200,00000000,0000.33,0000.13,0000.17,-000.23,-000.06,0000.09,-000.37,-000.27,0000.05,18.4,24.6,10.4,07.1,0661.7,31.1
2021-06-25T09:56:00Z,00000200,00000000,0000.48,0000.35,0000.17,-000.20,0000.06,0000.34,0000.00,0000.16,0000.22,18.4,24.6,10.4,07.1,0661.7,31.1
2021-06-25T09:57:00Z,00000200,40000000,,,,,,,0000.23,0000.27,-000.01,18.4,24.7,10.6,07.2,0661.7,31.1
2021-06-25T09:58:00Z,00000200,60000000,,,,,,,0000.00,-000.43,-000.23,18.2,24.7,10.5,07.0,0660.8,31.1
2021-06-25T09:59:00Z,00000200,20000000,,,,,,,0000.03,-000.01,-000.04,18.2,24.8,10.4,06.9,0660.7,31.1
